Time,TemperatureF,DewpointF,PressureIn,WindDirection,WindDirectionDegrees,WindSpeedMPH,WindSpeedGustMPH,Humidity,HourlyPrecipIn,Conditions,Clouds,dailyrainin,SoftwareType,DateUTC
2013-10-28 00:42:00,34.0,31.0,-100.00,SSW,213,8.0,16.0,89,0.00,,,-99.99,,2013-10-28 07:42:00,
2013-10-28 01:02:00,32.0,30.0,-100.00,North,360,8.0,15.0,91,0.00,,,-99.99,,2013-10-28 08:02:00,
2013-10-28 01:12:00,33.0,31.0,-100.00,SW,232,3.0,12.0,91,0.00,,,-99.99,,2013-10-28 08:12:00,
2013-10-28 01:22:00,33.0,31.0,-100.00,NE,55,3.0,12.0,92,0.00,,,-99.99,,2013-10-28 08:22:00,
2013-10-28 01:42:00,32.0,30.0,-100.00,North,360,8.0,15.0,91,0.00,,,-99.99,,2013-10-28 08:42:00,
2013-10-28 01:52:00,32.0,30.0,-100.00,North,360,8.0,15.0,91,0.00,,,-99.99,,2013-10-28 08:52:00,
2013-10-28 02:21:00,32.0,29.0,-100.00,North,-999,0.0,0.0,90,0.00,,,-99.99,,2013-10-28 09:21:00,
2013-10-28 02:33:00,32.0,29.0,-100.00,North,-999,0.0,0.0,90,0.00,,,-99.99,,2013-10-28 09:33:00,
2013-10-28 02:53:00,31.0,29.0,-100.00,North,-999,0.0,0.0,93,0.00,,,-99.99,,2013-10-28 09:53:00,
2013-10-28 03:11:00,30.0,29.0,-100.00,North,-999,0.0,0.0,97,0.00,,,-99.99,,2013-10-28 10:11:00,
2013-10-28 03:13:00,31.0,30.0,-100.00,North,-999,0.0,0.0,96,0.00,,,-99.99,,2013-10-28 10:13:00,
2013-10-28 03:23:00,31.0,30.0,-100.00,North,-999,0.0,0.0,96,0.00,,,-99.99,,2013-10-28 10:23:00,
2013-10-28 03:53:00,30.0,29.0,-100.00,North,-999,0.0,0.0,97,0.00,,,-99.99,,2013-10-28 10:53:00,
2013-10-28 04:03:00,30.0,29.0,-100.00,North,-999,0.0,0.0,97,0.00,,,-99.99,,2013-10-28 11:03:00,
2013-10-28 04:22:00,30.0,29.0,-100.00,North,-999,0.0,0.0,97,0.00,,,-99.99,,2013-10-28 11:22:00,
2013-10-28 04:42:00,30.0,29.0,-100.00,North,-999,0.0,0.0,97,0.00,,,-99.99,,2013-10-28 11:42:00,
2013-10-28 05:11:00,30.0,29.0,-100.00,North,-999,0.0,0.0,98,0.00,,,-99.99,,2013-10-28 12:11:00,
2013-10-28 05:21:00,30.0,29.0,-100.00,North,-999,0.0,0.0,98,0.00,,,-99.99,,2013-10-28 12:21:00,
2013-10-28 05:32:00,30.0,29.0,-100.00,North,-999,0.0,0.0,98,0.00,,,-99.99,,2013-10-28 12:32:00,
2013-10-28 05:52:00,29.0,29.0,-100.00,North,-999,0.0,0.0,98,0.00,,,-99.99,,2013-10-28 12:52:00,
2013-10-28 06:01:00,29.0,29.0,-100.00,North,-999,0.0,0.0,98,0.00,,,-99.99,,2013-10-28 13:01:00,
2013-10-28 06:11:00,29.0,29.0,-100.00,North,-999,0.0,0.0,98,0.00,,,-99.99,,2013-10-28 13:11:00,
2013-10-28 06:42:00,30.0,29.0,-100.00,North,-999,0.0,0.0,98,0.00,,,-99.99,,2013-10-28 13:42:00,
2013-10-28 07:11:00,30.0,29.0,-100.00,North,-999,0.0,0.0,97,0.00,,,-99.99,,2013-10-28 14:11:00,
2013-10-28 07:21:00,30.0,29.0,-100.00,North,-999,0.0,0.0,97,0.00,,,-99.99,,2013-10-28 14:21:00,
2013-10-28 07:41:00,30.0,29.0,-100.00,North,-999,0.0,0.0,98,0.00,,,-99.99,,2013-10-28 14:41:00,
2013-10-28 08:03:00,29.0,29.0,-100.00,North,-999,0.0,0.0,98,0.00,,,-99.99,,2013-10-28 15:03:00,
2013-10-28 08:11:00,30.0,29.0,-100.00,North,-999,0.0,0.0,98,0.00,,,-99.99,,2013-10-28 15:11:00,
2013-10-28 08:21:00,29.0,29.0,-100.00,North,-999,0.0,0.0,98,0.00,,,-99.99,,2013-10-28 15:21:00,
2013-10-28 08:43:00,29.0,29.0,-100.00,North,-999,0.0,0.0,98,0.00,,,-99.99,,2013-10-28 15:43:00,
2013-10-28 08:53:00,29.0,29.0,-100.00,North,-999,0.0,0.0,98,0.00,,,-99.99,,2013-10-28 15:53:00,
2013-10-28 09:23:00,30.0,29.0,-100.00,North,-999,0.0,0.0,98,0.00,,,-99.99,,2013-10-28 16:23:00,
2013-10-28 09:43:00,30.0,29.0,-100.00,North,-999,0.0,0.0,98,0.00,,,-99.99,,2013-10-28 16:43:00,
2013-10-28 09:53:00,30.0,29.0,-100.00,North,-999,0.0,0.0,98,0.00,,,-99.99,,2013-10-28 16:53:00,
2013-10-28 10:12:00,30.0,29.0,-100.00,North,-999,0.0,0.0,98,0.00,,,-99.99,,2013-10-28 17:12:00,
2013-10-28 10:22:00,30.0,29.0,-100.00,North,-999,0.0,0.0,98,0.00,,,-99.99,,2013-10-28 17:22:00,
2013-10-28 10:42:00,31.0,31.0,-100.00,North,-999,0.0,0.0,98,0.00,,,-99.99,,2013-10-28 17:42:00,
2013-10-28 11:12:00,32.0,32.0,-100.00,ENE,71,2.0,5.0,98,0.00,,,-99.99,,2013-10-28 18:12:00,
2013-10-28 11:21:00,32.0,32.0,-100.00,ESE,116,2.0,7.0,98,0.00,,,-99.99,,2013-10-28 18:21:00,
2013-10-28 11:42:00,32.0,32.0,-100.00,SW,216,8.0,20.0,98,0.00,,,-99.99,,2013-10-28 18:42:00,
2013-10-28 12:11:00,34.0,31.0,-100.00,SW,227,15.0,26.0,87,0.00,,,-99.99,,2013-10-28 19:11:00,
2013-10-28 12:21:00,35.0,27.0,-100.00,SW,229,17.0,31.0,72,0.00,,,-99.99,,2013-10-28 19:21:00,
2013-10-28 12:33:00,35.0,27.0,-100.00,SW,229,17.0,31.0,72,0.00,,,-99.99,,2013-10-28 19:33:00,
2013-10-28 12:42:00,35.0,27.0,-100.00,SW,229,17.0,31.0,72,0.00,,,-99.99,,2013-10-28 19:42:00,
2013-10-28 12:52:00,35.0,27.0,-100.00,SW,232,16.0,31.0,71,0.00,,,-99.99,,2013-10-28 19:52:00,
2013-10-28 13:02:00,35.0,27.0,-100.00,SW,232,16.0,31.0,71,0.00,,,-99.99,,2013-10-28 20:02:00,
2013-10-28 13:21:00,34.0,25.0,-100.00,SW,234,21.0,37.0,70,0.00,,,-99.99,,2013-10-28 20:21:00,
2013-10-28 13:42:00,35.0,27.0,-100.00,WSW,246,17.0,34.0,73,0.00,,,-99.99,,2013-10-28 20:42:00,
2013-10-28 14:11:00,34.0,27.0,-100.00,WSW,246,16.0,30.0,75,0.00,,,-99.99,,2013-10-28 21:11:00,
2013-10-28 14:21:00,34.0,27.0,-100.00,WSW,246,16.0,30.0,75,0.00,,,-99.99,,2013-10-28 21:21:00,
2013-10-28 14:43:00,34.0,28.0,-100.00,WSW,250,19.0,34.0,78,0.00,,,-99.99,,2013-10-28 21:43:00,
2013-10-28 15:23:00,35.0,26.0,-100.00,WSW,248,18.0,35.0,69,0.00,,,-99.99,,2013-10-28 22:23:00,
2013-10-28 15:43:00,35.0,26.0,-100.00,WSW,244,16.0,30.0,69,0.00,,,-99.99,,2013-10-28 22:43:00,
2013-10-28 15:53:00,36.0,25.0,-100.00,WSW,247,15.0,30.0,64,0.00,,,-99.99,,2013-10-28 22:53:00,
2013-10-28 16:02:00,36.0,25.0,-100.00,WSW,247,15.0,30.0,64,0.00,,,-99.99,,2013-10-28 23:02:00,
2013-10-28 16:12:00,36.0,25.0,-100.00,WSW,247,15.0,30.0,64,0.00,,,-99.99,,2013-10-28 23:12:00,
2013-10-28 16:22:00,36.0,25.0,-100.00,WSW,247,15.0,30.0,64,0.00,,,-99.99,,2013-10-28 23:22:00,
2013-10-28 16:43:00,33.0,26.0,-100.00,WSW,248,19.0,37.0,76,0.00,,,-99.99,,2013-10-28 23:43:00,
2013-10-28 17:11:00,34.0,26.0,-100.00,WSW,246,18.0,37.0,73,0.00,,,-99.99,,2013-10-29 00:11:00,
2013-10-28 17:21:00,35.0,26.0,-100.00,WSW,241,16.0,35.0,69,0.00,,,-99.99,,2013-10-29 00:21:00,
2013-10-28 17:32:00,35.0,26.0,-100.00,WSW,241,16.0,35.0,69,0.00,,,-99.99,,2013-10-29 00:32:00,
2013-10-28 17:41:00,35.0,26.0,-100.00,WSW,241,16.0,35.0,69,0.00,,,-99.99,,2013-10-29 00:41:00,
2013-10-28 17:52:00,35.0,27.0,-100.00,WSW,247,17.0,35.0,72,0.00,,,-99.99,,2013-10-29 00:52:00,
2013-10-28 18:21:00,33.0,28.0,-100.00,SW,220,14.0,27.0,81,0.00,,,-99.99,,2013-10-29 01:21:00,
2013-10-28 18:31:00,33.0,28.0,-100.00,SW,220,14.0,27.0,81,0.00,,,-99.99,,2013-10-29 01:31:00,
2013-10-28 18:52:00,33.0,29.0,-100.00,SSW,202,10.0,17.0,86,0.00,,,-99.99,,2013-10-29 01:52:00,
2013-10-28 19:02:00,33.0,29.0,-100.00,SSW,202,10.0,17.0,86,0.00,,,-99.99,,2013-10-29 02:02:00,
2013-10-28 19:21:00,33.0,28.0,-100.00,SSW,213,12.0,28.0,82,0.00,,,-99.99,,2013-10-29 02:21:00,
2013-10-28 19:44:00,34.0,28.0,-100.00,SSW,208,13.0,31.0,79,0.00,,,-99.99,,2013-10-29 02:44:00,
2013-10-28 20:27:00,34.0,27.0,-100.00,SSW,212,15.0,32.0,75,0.00,,,-99.99,,2013-10-29 03:27:00,
2013-10-28 20:40:00,-999.0,-99.9,-100.00,SW,224,15.0,30.0,82,0.00,,,-99.99,,2013-10-29 03:40:00,
2013-10-28 20:47:00,33.0,28.0,-100.00,SW,224,15.0,30.0,82,0.00,,,-99.99,,2013-10-29 03:47:00,
2013-10-28 21:13:00,34.0,29.0,-100.00,SW,219,12.0,29.0,81,0.00,,,-99.99,,2013-10-29 04:13:00,
2013-10-28 21:24:00,34.0,29.0,-100.00,SW,222,11.0,25.0,82,0.00,,,-99.99,,2013-10-29 04:24:00,
2013-10-28 21:43:00,34.0,29.0,-100.00,SW,217,11.0,24.0,82,0.00,,,-99.99,,2013-10-29 04:43:00,
2013-10-28 21:57:00,34.0,28.0,-100.00,SSW,208,11.0,24.0,80,0.00,,,-99.99,,2013-10-29 04:57:00,
2013-10-28 22:04:00,34.0,28.0,-100.00,SSW,208,11.0,24.0,80,0.00,,,-99.99,,2013-10-29 05:04:00,
2013-10-28 22:22:00,34.0,29.0,-100.00,SSW,212,11.0,23.0,82,0.00,,,-99.99,,2013-10-29 05:22:00,
2013-10-28 22:45:00,34.0,29.0,-100.00,SSW,205,7.0,15.0,83,0.00,,,-99.99,,2013-10-29 05:45:00,
2013-10-28 22:52:00,34.0,28.0,-100.00,SSE,165,4.0,10.0,80,0.00,,,-99.99,,2013-10-29 05:52:00,
2013-10-28 23:06:00,34.0,28.0,-100.00,SSE,165,4.0,10.0,80,0.00,,,-99.99,,2013-10-29 06:06:00,
2013-10-28 23:25:00,35.0,28.0,-100.00,South,169,5.0,16.0,76,0.00,,,-99.99,,2013-10-29 06:25:00,
2013-10-28 23:43:00,35.0,29.0,-100.00,South,178,4.0,14.0,77,0.00,,,-99.99,,2013-10-29 06:43:00,